Weather in Atnary

Russia / Chuvash Republic     55°39′09″N   46°12′36″E
temp.,
°C
wind,
m/s
gust,
m/s
humid.,
%
clouds,
%
prec.,
mm/h
press.,
hPa
HPBL,
m
17 may, mon
mon1700:00+14sw33935 0.6 101626
03:00+14sse119095 2.5 101611
06:00+17ne118173 0.0 101761
09:00+22ene226879 0.0 1017396
12:00+25ese235971 0.0 1017921
15:00+27ene12537 0.0 10161041
18:00+25nne237143 0.0 101653
21:00+19e348239 0.3 101752
18 may, tue
tue1800:00+17se1182100 0.4 101711
03:00+17e227699 0.4 101714
06:00+18ese378268 0.0 1018178
09:00+23ese566627 0.0 1018460
12:00+26ese565428 0.0 10171017
15:00+27e57555 0.0 1017865
18:00+24ese511695 0.0 1016313
21:00+19ese411775 0.0 1017177
19 may, wed
wed1900:00+19ese614775 0.0 1017281
03:00+16ese412845 0.0 1017224
06:00+18ese612825 0.0 1017276
09:00+22ese79675 0.0 1017490
12:00+25ese79595 0.0 10161011
15:00+25ese79622 0.0 10161062
18:00+22ese611670 0.0 1015373
21:00+19ese614670 0.0 1015279
20 may, thu
thu2000:00+17ese5147114 0.0 1014269
03:00+16se513740 0.0 1014273
06:00+17se613770 0.0 1014369
09:00+22se710620 0.0 1013690
12:00+25se710570 0.0 10131373
15:00+25se610560 0.0 10122379
18:00+21ssw4774100 0.1 1013223
21:00+16s249263 1.8 101457
21 may, fri
fri2100:00+14ssw2290100 0.0 101430
03:00+14ssw2392100 0.0 101543
06:00+15sw3689100 0.0 1016250
09:00+18wsw457340 0.0 1016893
12:00+21wsw565915 0.0 10171582
15:00+20w56570 0.1 10181389
18:00+19wsw3571100 0.0 1018174
21:00+14wsw118242 0.0 101910